Regional Weather Roundup
Issued by NWS Charleston, SC

Current Version | Previous Version | Graphics & Text | Print | Product List | Glossary On
Versions: 1 2 3 4 5 6 7 8 9 10 11 12 13 14 15 16 17 18 19 20 21 22 23 24 25 26 27 28 29 30 31 32 33 34 35 36 37 38 39 40 41 42 43 44 45 46 47 48 49 50
000
ASUS42 KCHS 170710
RWRCHS
REGIONAL WEATHER ROUNDUP
NATIONAL WEATHER SERVICE CHARLESTON SC
300 AM EDT THU APR 17 2014

NOTE: "FAIR" INDICATES FEW OR NO CLOUDS BELOW 12,000 FEET WITH NO
SIGNIFICANT WEATHER AND/OR OBSTRUCTIONS TO VISIBILITY.

NOT ALL STATIONS ARE QUALITY CONTROLLED BY THE NATIONAL
WEATHER SERVICE. USE DATA WITH CAUTION...ESPECIALLY
DEWPOINT OBSERVATIONS.

SCZ027-030-031-034>040-042>050-170800-
...SOUTH CAROLINA...

CITY           SKY/WX    TMP DP  RH WIND       PRES   REMARKS
N CHARLESTON   CLEAR     46  39  76 N9        30.36F
WATERFRONT PRK   N/A     52 N/A N/A N17         N/A
FORT JOHNSON   NOT AVBL
MOUNT PLEASANT FAIR     N/A N/A N/A N5        30.36S
JOHNS ISLAND   SUNNY     50  45  81 N7        30.35S
PINOPOLIS        N/A     48  41  76 NE15      30.29F
MONCKS CORNER  FAIR      46  41  81 NE7       30.38S
SUMMERVILLE    FAIR      41  41 100 N3        30.37F
BEAUFORT MCAS  CLEAR     50  40  68 E12       30.34F
BEAUFORT ARPT  FAIR      52  45  76 NE17      30.33S
HILTON HEAD IS NOT AVBL
GEORGETOWN     NOT AVBL
WALTERBORO     SUNNY     45  43  93 NE7       30.37S
ORANGEBURG     CLEAR     42  37  82 NE6       30.40S
BARNWELL       FAIR      43  37  81 NE7       30.38F
AIKEN          FAIR      39  36  87 CALM      30.42S
MANNING        FAIR      41 N/A N/A NE3       30.41R
KINGSTREE      NOT AVBL
COLUMBIA       CLEAR     43  35  73 CALM      30.41S
SUMTER         CLEAR     38  32  81 NE7       30.40R WCI  32
FLORENCE       CLEAR     39  33  79 NE6       30.42F WCI  35
MYRTLE BEACH   CLEAR     43  34  70 N10       30.40
N MYRTLE BEACH   N/A     42  30  62 NE16G23   30.39

$$

GAZ063-065-086>088-099>101-113>116-118-119-134-136>141-150-170800-
...GEORGIA...

CITY           SKY/WX    TMP DP  RH WIND       PRES   REMARKS
SAVANNAH ARPT  CLEAR     49  41  74 N9        30.31F
HUNTER AAF     MOCLDY    50  43  76 VRB6      30.28F
FORT STEWART   CLOUDY    49  45  88 N8        30.28F
STATESBORO     NOT AVBL
SYLVANIA       SUNNY     46  41  82 E5        30.35S
CLAXTON        FAIR      46  45  93 NE8       30.32F
THOMSON        CLEAR     41  38  88 E7        30.41F
AUGUSTA-BUSH   CLEAR     37  34  89 CALM      30.38F
AUGUSTA-DANIEL CLEAR     46  36  68 NE8       30.38F
SWAINSBORO     FAIR      43  41  93 E6        30.34S
VIDALIA        CLEAR     45  43  93 NE8       30.32S
ALMA           CLEAR     47  40  76 NE5       30.29R
WAYCROSS       NOT AVBL
JESUP          CLOUDY    50  45  81 NE7       30.29R
BRUNSWICK      CLOUDY    57  52  82 NE14      30.26S
SAINT SIMONS   LGT RAIN  59  51  75 NE17G24   30.25S

$$

SCZ027-028-034-036>038-045-046-048>050-GAZ119-141-170800-
...LAKE AND SUPPLEMENTAL COASTAL OBSERVATIONS...

STATION/POSITION TIME  TEMP    WIND        PRES    WAVE   SWELL
                       AIR SEA DIR/SP/G            HT/PER HT/PER/DIR
                 (UTC) (F)     (DEG/KT/KT) (MB)    (FT/S) (FT/S/D)
UPR LAKE MARION  NOT AVBL
WINYAH BAY       0600   53      50/ 16     1028.0S
LAKE MURRAY      0600   45      40/  3/  6 1029.1S
ACE BASIN NERRS  0600   49      30/  6     1027.0S
FORT PULASKI     0700   56 60   20/ 15/ 19 1026.0F
SAPELO ISLAND    0600   57      50/ 13     1025.0S

$$

ANZ086-088-AMZ330-350-352-354-374-454-470-170800-
...C-MAN AND BUOY OBSERVATIONS...

STATION/POSITION TIME  TEMP    WIND        PRES    WAVE   SWELL
                       AIR SEA DIR/SP/G            HT/PER HT/PER/DIR
                 (UTC) (F)     (DEG/KT/KT) (MB)    (FT/S) (FT/S/D)
FOLLY BEACH CMAN 0700   53      20/ 16/ 19 1027.9S
BUOY 41004       NOT AVBL
BUOY 41008       0700   60 63   50/ 23/ 29 1023.5F   8/ 6   3/ 90/12
5E ST. MARYS GA  0700      64                N/A     7/ 7   2/ 70/12
FRYING PAN BUOY  0700   53 62   50/ 23/ 27 1026.9F   8/ 6   2/ 60/12
BUOY 41025       NOT AVBL
CAPE LOOKOUT NC  0700   47      20/ 20/ 24 1028.8F
BUOY 41002       NOT AVBL
BUOY 41010       0700   71 76   50/ 19/ 23 1020.3F   9/11   7/ 20/11
BUOY 41012       NOT AVBL
ST AUGUSTINE FL  0700   64      10/ 16/ 17 1022.4F


$$


USA.gov is the U.S. government's official web portal to all federal, state and local government web resources and services.